Tracking 19846 objects as of 19-Sep-2019
HD Live streaming from Space Station
objects crossing your sky now

FLOCK 4A 20

Track FLOCK 4A 20 now!
10-day predictions
FLOCK 4A 20 is classified as:


NORAD ID: 44091
Int'l Code: 2019-018P
Perigee: 496.4 km
Apogee: 517.3 km
Inclination: 97.4 °
Period: 94.6 minutes
Semi major axis: 6877 km
RCS: Unknown
Launch date: April 1, 2019
Source: United States (US)
Launch site: SRIHARIKOTA (SRI)
aabbcc
Your satellite tracking list
Your tracking list is empty




NASA's NSSDC Master Catalog

Two Line Element Set (TLE):
1 44091U 19018P   19262.23235573  .00001199  00000-0  55418-4 0  9994
2 44091  97.4487 321.2801 0015211  52.9553 307.3072 15.22033334 25987
Source of the keplerian elements: AFSPC